Regional Weather Roundup
Issued by NWS

Home | Current Version | Previous Version | Text Only | Print | Product List | Glossary On
Versions: 1 2 3 4 5 6 7 8 9 10 11 12 13 14 15 16 17 18 19 20 21 22 23 24 25 26 27 28 29 30 31 32 33 34 35 36 37 38 39 40 41 42 43 44 45 46 47 48 49 50
000
ASUS43 KTOP 250208
RWRKS

WEATHER ROUNDUP FOR KANSAS
NATIONAL WEATHER SERVICE GOODLAND KS
800 PM CST TUE JAN 24 2017

NOTE:  "FAIR" INDICATES FEW OR NO CLOUDS BELOW 12,000 FEET WITH NO
SIGNIFICANT WEATHER AND/OR OBSTRUCTIONS TO VISIBILITY.

KSZ001>006-013>018-027>032-041>047-250300-
NORTHWEST KANSAS

CITY           SKY/WX    TMP DP  RH WIND       PRES   REMARKS
GOODLAND       CLOUDY    24  17  74 N24G37    29.70R WCI   8
HAYS           CLOUDY    36  29  75 NW15      29.63R WCI  27
HILL CITY      CLOUDY    33  27  78 NW16G26   29.65R WCI  23
RUSSELL        PTCLDY    33  28  81 NW15      29.60R WCI  23
$$

KSZ061>065-074>080-084>089-250300-
SOUTHWEST KANSAS

CITY           SKY/WX    TMP DP  RH WIND       PRES   REMARKS
DODGE CITY     CLOUDY    35  26  69 NW25G33   29.68R WCI  23
ELKHART          N/A     33  23  66 NW8         N/A
GARDEN CITY    CLOUDY    31  23  72 NW21      29.70R WCI  18
GREAT BEND     MOCLDY    36  30  79 NW13      29.63R WCI  27
LIBERAL          N/A     36  27  69 NW16      29.72R WCI  26
PRATT          CLEAR     33  28  85 NW15      29.62S WCI  22
$$

KSZ066>073-081>083-090>101-250300-
SOUTHEAST KANSAS

CITY           SKY/WX    TMP DP  RH WIND       PRES   REMARKS
CHANUTE        CLEAR     57  39  51 W15G23    29.48R
COFFEYVILLE    CLEAR     58  38  47 S12       29.50R
HUTCHINSON     MOCLDY    38  32  79 NW21      29.59R WCI  28
MEDICINE LODGE   N/A     38  30  73 NW15G23   29.62R WCI  29
NEWTON         CLOUDY    39  34  82 NW23G30   29.56R WCI  28
PARSONS        CLEAR     60  38  43 S10       29.49R
WICHITA INTL   PTCLDY    40  33  76 NW15G24   29.59R WCI  32
WICHITA JABRA  MOCLDY    39  33  79 W16       29.58R WCI  30
WICHITA MCCONL CLEAR     40  33  77 NW16G22   29.58R WCI  31
WINFIELD       CLEAR     40  34  79 NW10      29.62R WCI  33
$$

KSZ007>012-019>026-033>040-048>060-102>105-250300-
NORTHEAST KANSAS

CITY           SKY/WX    TMP DP  RH WIND       PRES   REMARKS
CONCORDIA      CLOUDY    35  33  92 NW13      29.55R FOG     WCI  26
EMPORIA        PTCLDY    43  35  73 W13       29.50R
LAWRENCE       MOCLDY    48  40  73 CALM      29.43S
MANHATTAN      PTCLDY    40  34  79 NW12G20   29.51R WCI  33
MARYSVILLE     CLOUDY    36  34  93 N6        29.52S
OLATHE IND     PTCLDY    50  40  68 S8        29.44R
OLATHE EXE     CLOUDY    49  40  71 E7        29.43S
SALINA         CLOUDY    39  32  76 W21G28    29.62R WCI  29
TOPEKA BILLARD LGT RAIN  46  39  76 N5        29.44S
TOPEKA FORBES  MOCLDY    43  37  79 NW5       29.45R
$$



USA.gov is the U.S. government's official web portal to all federal, state and local government web resources and services.